sat.trackr.live / text

‹ back to catalog

STARLINK-3791

NORAD 52269 · 2022-041J

PAYLOAD ACTIVE UNKNOWN

§ Identity

Operator
Country
US
Launch date
2022-04-21
Launch site
AFETR
Launch vehicle
Mass (kg)
RCS (m²)

Purposes: comms

External: N2YO · Heavens-Above · Gunter

§ Orbital elements

Epoch: 2026-09-20T03:18:58.059072Z

Period
93.79 min
Inclination
53.1618°
Eccentricity
0.0000916
Mean motion
15.35404596 rev/d
Perigee alt
459.1 km
Apogee alt
460.3 km
Semi-major
6,837.9 km
B*
9.6745e-6
RAAN
309.5631°
Arg perigee
52.1987°
Mean anomaly
307.9099°
Rev number
24,380

§ Raw data

STARLINK-37911 52269U 22041J   26263.13817198 -.00000043  00000+0  96745-5 0  99932 52269  53.1618 309.5631 0000916  52.1987 307.9099 15.35404596243801

JSON: /api/v1/satellites/52269 · /tle

For live sub-satellite position, see the globe view (requires WebGL).

§ Visibility from observer

Set your observer location to see the next 7 days of passes ≥ 10°. The values pass through the URL so the page stays shareable.

No JS? Fill the form by hand. The geolocation button needs JavaScript.